Flag Weather past 2 weeks in Cardiff, Wales, United Kingdom

Now
63 °F

Passing clouds.


Feels Like: 63 °F
Forecast: N/A
Wind: 10 mph from South

Location: Wales Airport

Current Time: Oct 31, 2014 at 8:19:25 PM

Latest Report: Oct 31, 2014 at 7:50 PM


Visibility: N/A

Pressure: 29.86 "Hg

Humidity: 88%

Dew point: 59 °F

Location of CardiffLocation

Historic Weather in Cardiff — Graph

°F

Cardiff temperature yesterday

Maximum temperature yesterday: 63 °F (at 12:20 PM)
Minimum temperature yesterday: 55 °F (at 12:20 AM)
Average temperature yesterday: 60 °F

Past Weeks' High & Low Weather Summary

 TemperatureHumidityPressure
High66 °F (Oct 31, 11:50 AM)100% (Oct 17, 9:20 PM)30.33 "Hg (Oct 17, 9:20 PM)
Low46 °F (Oct 21, 11:50 PM)58% (Oct 21, 3:50 PM)29.56 "Hg (Oct 16, 8:20 PM)
Average57 °F87%29.96 "Hg
* Reported Oct 16 8:20 PM — Oct 31 7:20 PM, Cardiff, Weather by CustomWeather, © 2014

Note: Actual official high and low records may vary slightly from our data, if they occured in-between our weather recording intervals... More about our weather records

Advertising

Cardiff weather history for previous 24 hours

 ConditionsComfort  
Time TempWeatherWind HumidityBarometerVisibility
7:20 PM
Oct 31
61 °FCool.6 mph88%29.89 "HgN/A
6:50 PM59 °FCool.8 mph94%29.89 "HgN/A
6:20 PM61 °FCool.8 mph88%29.89 "HgN/A
5:50 PM61 °FCool.9 mph88%29.89 "HgN/A
5:20 PM63 °FMild.10 mph83%29.89 "HgN/A
4:50 PM63 °FMild.10 mph83%29.89 "HgN/A
4:20 PM63 °FMild.10 mph83%29.86 "HgN/A
3:50 PM64 °FMild.10 mph83%29.89 "HgN/A
3:20 PM64 °FMild.12 mph83%29.89 "HgN/A
2:50 PM64 °FMild.13 mph83%29.89 "HgN/A
2:20 PM64 °FMild.9 mph83%29.89 "HgN/A
1:50 PM64 °FMild.12 mph83%29.89 "HgN/A
1:20 PM64 °FMild.14 mph83%29.89 "HgN/A
12:50 PM66 °FMild.14 mph78%29.89 "HgN/A
12:20 PM66 °FMild.14 mph73%29.89 "HgN/A
11:50 AM66 °FMild.12 mph78%29.92 "HgN/A
11:20 AM63 °FMild.14 mph88%29.92 "HgN/A
10:50 AM63 °FMild.14 mph88%29.95 "HgN/A
10:20 AM63 °FMild.10 mph88%29.95 "HgN/A
9:50 AM61 °FCool.9 mph88%29.95 "HgN/A
9:20 AM61 °FCool.8 mph88%29.95 "HgN/A
8:50 AM61 °FCool.6 mph88%29.95 "HgN/A
8:20 AM61 °FCool.5 mph88%29.95 "HgN/A
7:50 AM59 °FScattered clouds.6 mph94%29.95 "HgN/A
7:20 AM59 °FPassing clouds.8 mph94%29.95 "Hg6 mi
6:50 AM59 °FPassing clouds.10 mph94%29.95 "Hg6 mi
6:20 AM59 °FCool.8 mph94%29.95 "Hg5 mi
5:50 AM59 °FCool.8 mph94%29.95 "Hg4 mi
5:20 AM59 °FCool.8 mph94%29.98 "Hg4 mi
4:50 AM59 °FCool.8 mph94%29.98 "Hg4 mi
4:20 AM59 °FCool.10 mph94%29.98 "Hg4 mi
3:50 AM59 °FHaze.10 mph94%29.98 "Hg3 mi
3:20 AM59 °FFog.10 mph94%29.98 "Hg3 mi
2:50 AM59 °FFog.8 mph94%29.98 "Hg2 mi
2:20 AM59 °FFog.9 mph100%29.98 "Hg3 mi
1:50 AM59 °FFog.7 mph94%30.01 "Hg3 mi
1:20 AM59 °FFog.9 mph94%30.01 "Hg3 mi
12:50 AM59 °FOvercast.8 mph94%30.01 "Hg4 mi
12:20 AM59 °FMostly cloudy.10 mph94%30.01 "Hg3 mi
11:50 PM
Oct 30
59 °FMostly cloudy.8 mph94%30.01 "Hg2 mi
11:20 PM61 °FOvercast.8 mph88%30.01 "Hg4 mi
10:50 PM61 °FMostly cloudy.8 mph88%30.01 "Hg4 mi
10:20 PM61 °FOvercast.9 mph88%30.01 "Hg4 mi
9:50 PM61 °FOvercast.8 mph88%30.01 "Hg4 mi
9:20 PM61 °FOvercast.7 mph88%30.01 "Hg3 mi
8:50 PM59 °FMostly cloudy.7 mph94%30.01 "Hg3 mi
8:20 PM61 °FOvercast.8 mph88%30.01 "Hg3 mi
Weather by CustomWeather, © 2014

See weather overviewHow to use our weather pages